TimeCDT,TemperatureF,Dew PointF,Humidity,Sea Level PressureIn,VisibilityMPH,Wind Direction,Wind SpeedMPH,Gust SpeedMPH,PrecipitationIn,Events,Conditions,WindDirDegrees,DateUTC
12:54 AM,72.0,64.0,76,30.17,10.0,Calm,Calm,-,N/A,,Clear,0,2013-08-25 05:54:00
1:54 AM,69.1,63.0,81,30.17,10.0,Calm,Calm,-,N/A,,Clear,0,2013-08-25 06:54:00
2:54 AM,66.9,63.0,87,30.18,9.0,Calm,Calm,-,N/A,,Clear,0,2013-08-25 07:54:00
3:54 AM,66.0,63.0,90,30.19,8.0,Calm,Calm,-,N/A,,Clear,0,2013-08-25 08:54:00
4:54 AM,63.0,62.1,97,30.20,4.0,Calm,Calm,-,N/A,,Clear,0,2013-08-25 09:54:00
5:54 AM,63.0,62.1,97,30.22,10.0,Calm,Calm,-,N/A,,Clear,0,2013-08-25 10:54:00
6:54 AM,62.1,61.0,96,30.24,10.0,Calm,Calm,-,N/A,,Clear,0,2013-08-25 11:54:00
7:54 AM,69.1,64.9,87,30.25,10.0,Calm,Calm,-,N/A,,Scattered Clouds,0,2013-08-25 12:54:00
8:54 AM,75.0,64.9,71,30.24,10.0,Calm,Calm,-,N/A,,Scattered Clouds,0,2013-08-25 13:54:00
9:54 AM,82.0,66.0,58,30.23,10.0,South,4.6,-,N/A,,Scattered Clouds,190,2013-08-25 14:54:00
10:54 AM,86.0,66.0,51,30.22,10.0,SSW,6.9,-,N/A,,Partly Cloudy,200,2013-08-25 15:54:00
11:54 AM,88.0,64.0,45,30.20,10.0,SE,4.6,-,N/A,,Scattered Clouds,130,2013-08-25 16:54:00
12:54 PM,90.0,64.9,43,30.19,10.0,WSW,9.2,-,N/A,,Partly Cloudy,250,2013-08-25 17:54:00
1:54 PM,91.0,64.0,41,30.17,10.0,Variable,4.6,-,N/A,,Scattered Clouds,0,2013-08-25 18:54:00
2:54 PM,91.0,64.0,41,30.16,10.0,NW,8.1,-,N/A,,Partly Cloudy,310,2013-08-25 19:54:00
3:54 PM,91.9,63.0,38,30.14,10.0,West,4.6,-,N/A,,Scattered Clouds,280,2013-08-25 20:54:00
4:54 PM,91.9,62.1,37,30.14,10.0,NNW,5.8,-,N/A,,Scattered Clouds,330,2013-08-25 21:54:00
5:54 PM,91.0,62.1,38,30.14,10.0,Calm,Calm,-,N/A,,Scattered Clouds,0,2013-08-25 22:54:00
6:54 PM,84.9,70.0,61,30.14,10.0,Calm,Calm,-,N/A,,Clear,0,2013-08-25 23:54:00
7:54 PM,80.1,70.0,71,30.15,10.0,SSE,3.5,-,N/A,,Scattered Clouds,150,2013-08-26 00:54:00
8:54 PM,77.0,69.1,76,30.15,10.0,South,3.5,-,N/A,,Clear,180,2013-08-26 01:54:00
9:54 PM,77.0,68.0,74,30.16,10.0,South,3.5,-,N/A,,Clear,170,2013-08-26 02:54:00
10:54 PM,78.1,69.1,74,30.16,10.0,South,5.8,-,N/A,,Clear,170,2013-08-26 03:54:00
11:54 PM,78.1,70.0,76,30.17,10.0,SSW,5.8,-,N/A,,Clear,200,2013-08-26 04:54:00